Weather History for Luqa, Malta

Change the Weather History Date:

Sunday, May 12, 2013

  Actual Average Record
Temperature  
Mean Temperature 66 °F -  
Max Temperature 71 °F 77 °F 86 °F (2012)
Min Temperature 60 °F 61 °F 55 °F (1997)
Growing Degree Days 16 (Base 50)    
Moisture  
Dew Point 54 °F    
Average Humidity 68    
Maximum Humidity 83    
Minimum Humidity 45    
Precipitation  
Precipitation 0.00 in 0.01 in - ()
Sea Level Pressure  
Sea Level Pressure 29.95 in    
Wind  
Wind Speed 14 mph ()    
Max Wind Speed 31 mph    
Max Gust Speed 44 mph    
Visibility 7.2 miles    
Events      
Averages and records for this station are not official NWS values.
T = Trace of Precipitation, MM = Missing Value Source: Averaged Metar Reports

Daily Weather History Graph

Daily Weather History Graph

Search for Another Location

Airport:

Trip Planner

Search our weather history database for the weather conditions in past years. The results will help you decide how hot, cold, wet, or windy it might be!

Date:

Astronomy

May. 12, 2013 Rise Set
Actual Time 5:59 AM CEST 7:58 PM CEST
Civil Twilight 5:30 AM CEST 8:26 PM CEST
Nautical Twilight 4:56 AM CEST 9:00 PM CEST
Astronomical Twilight 4:19 AM CEST 9:37 PM CEST
Moon 7:41 AM CEST (5/12) 10:11 PM CEST (5/12)
Length of Visible Light 14h 55m
Length of Day
13h 59m
Waxing Crescent, 5% of the Moon is Illuminated
May 12
Waxing Crescent
May 18
First Quarter
May 25
Full
May 31
Last Quarter
Jun 8
New

Hourly Weather History & Observations

Time (CEST) Temp. Dew Point Humidity Pressure Visibility Wind Dir Wind Speed Gust Speed Precip Events Conditions
12:15 AM 64.4 °F 51.8 °F 64% 29.95 in - North 10.4 mph - N/A   Clear
12:45 AM 62.6 °F 55.4 °F 77% 29.95 in - North 9.2 mph - N/A   Clear
1:15 AM 62.6 °F 55.4 °F 77% 29.95 in - North 8.1 mph - N/A   Clear
1:45 AM 62.6 °F 55.4 °F 77% 29.95 in - North 9.2 mph - N/A   Clear
2:00 AM 63 °F 55 °F 69% 29.95 in 7 mi North 10.4 mph - -  
2:15 AM 62.6 °F 55.4 °F 77% 29.95 in - North 9.2 mph - N/A   Clear
2:45 AM 62.6 °F 55.4 °F 77% 29.95 in - North 10.4 mph - N/A   Clear
3:15 AM 62.6 °F 55.4 °F 77% 29.95 in - North 8.1 mph - N/A   Clear
3:45 AM 60.8 °F 53.6 °F 77% 29.92 in - North 5.8 mph - N/A   Clear
4:15 AM 60.8 °F 53.6 °F 77% 29.92 in - NNW 5.8 mph - N/A   Clear
4:45 AM 60.8 °F 55.4 °F 82% 29.92 in - NNW 6.9 mph - N/A   Clear
5:00 AM 61 °F 55 °F 75% 29.94 in 7 mi NNW 8.1 mph - -   Partly Cloudy
5:15 AM 60.8 °F 55.4 °F 82% 29.95 in - NNW 8.1 mph - N/A   Clear
5:45 AM 62.6 °F 55.4 °F 77% 29.95 in - NW 8.1 mph - N/A   Clear
6:15 AM 62.6 °F 57.2 °F 82% 29.95 in 6.2 mi NW 10.4 mph - N/A   Partly Cloudy
6:45 AM 62.6 °F 57.2 °F 82% 29.95 in - NW 10.4 mph - N/A   Clear
7:15 AM 64.4 °F 59.0 °F 83% 29.95 in - NW 11.5 mph - N/A   Clear
7:45 AM 66.2 °F 57.2 °F 73% 29.95 in - NW 10.4 mph - N/A   Clear
8:00 AM 67 °F 56 °F 60% 29.95 in 12 mi NW 12.7 mph - -  
8:15 AM 66.2 °F 55.4 °F 68% 29.95 in - NW 15.0 mph - N/A   Clear
8:45 AM 68.0 °F 55.4 °F 64% 29.95 in - NNW 16.1 mph - N/A   Clear
9:15 AM 68.0 °F 55.4 °F 64% 29.95 in - NW 17.3 mph - N/A   Clear
9:45 AM 68.0 °F 55.4 °F 64% 29.95 in - NW 21.9 mph - N/A   Clear
10:15 AM 69.8 °F 55.4 °F 60% 29.95 in - NNW 20.7 mph - N/A   Clear
10:45 AM 71.6 °F 53.6 °F 53% 29.95 in - NNW 21.9 mph - N/A   Clear
11:15 AM 69.8 °F 53.6 °F 56% 29.95 in - NW 24.2 mph - N/A   Clear
11:45 AM 69.8 °F 51.8 °F 53% 29.95 in - NNW 26.5 mph - N/A   Clear
12:15 PM 69.8 °F 55.4 °F 60% 29.95 in 6.2 mi NW 26.5 mph - N/A   Partly Cloudy
12:45 PM 69.8 °F 55.4 °F 60% 29.95 in 6.2 mi NW 27.6 mph - N/A   Partly Cloudy
1:15 PM 69.8 °F 53.6 °F 56% 29.98 in - NW 26.5 mph - N/A   Clear
1:45 PM 69.8 °F 51.8 °F 53% 29.98 in 6.2 mi NNW 31.1 mph - N/A   Partly Cloudy
2:00 PM 69 °F 53 °F 45% 29.96 in 12 mi NW 31.1 mph - -  
2:15 PM 69.8 °F 51.8 °F 53% 29.95 in 6.2 mi NW 29.9 mph - N/A   Partly Cloudy
2:45 PM 68.0 °F 51.8 °F 56% 29.95 in 6.2 mi NW 31.1 mph - N/A   Partly Cloudy
3:15 PM 68.0 °F 51.8 °F 56% 29.95 in 6.2 mi NW 29.9 mph 43.7 mph N/A   Partly Cloudy
3:45 PM 68.0 °F 53.6 °F 60% 29.95 in 6.2 mi NW 31.1 mph - N/A   Partly Cloudy
4:15 PM 68.0 °F 53.6 °F 60% 29.95 in - NW 31.1 mph 42.6 mph N/A   Clear
4:45 PM 68.0 °F 55.4 °F 64% 29.95 in - NW 27.6 mph 40.3 mph N/A   Clear
5:00 PM 67 °F 54 °F 53% 29.94 in 12 mi NW 29.9 mph - -   Clear
5:15 PM 68.0 °F 53.6 °F 60% 29.92 in 6.2 mi NW 27.6 mph 39.1 mph N/A   Partly Cloudy
5:45 PM 66.2 °F 53.6 °F 64% 29.92 in 6.2 mi NW 26.5 mph - N/A   Partly Cloudy
6:15 PM 66.2 °F 53.6 °F 64% 29.92 in 6.2 mi NW 28.8 mph - N/A   Partly Cloudy
6:45 PM 64.4 °F 53.6 °F 68% 29.92 in 6.2 mi NW 26.5 mph - N/A   Partly Cloudy
7:15 PM 64.4 °F 53.6 °F 68% 29.95 in 6.2 mi NW 24.2 mph - N/A   Partly Cloudy
7:45 PM 62.6 °F 53.6 °F 72% 29.95 in 6.2 mi NW 19.6 mph 32.2 mph N/A   Partly Cloudy
8:00 PM 63 °F 54 °F 64% 29.95 in 9 mi NW 24.2 mph - -  
8:15 PM 62.6 °F 53.6 °F 72% 29.95 in 6.2 mi NW 24.2 mph - N/A   Partly Cloudy
8:45 PM 62.6 °F 53.6 °F 72% 29.95 in - NW 20.7 mph - N/A   Clear
9:15 PM 62.6 °F 55.4 °F 77% 29.95 in - NW 19.6 mph - N/A   Clear
9:45 PM 60.8 °F 55.4 °F 82% 29.95 in - NNW 21.9 mph - N/A   Clear
10:15 PM 60.8 °F 55.4 °F 82% 29.98 in - NNW 16.1 mph - N/A   Clear
10:45 PM 60.8 °F 55.4 °F 82% 29.98 in - NNW 13.8 mph - N/A   Clear
11:00 PM 61 °F 54 °F 73% 30.00 in 7 mi NNW 15.0 mph - -  
11:15 PM 60.8 °F 53.6 °F 77% 29.98 in - NNW 12.7 mph - N/A   Clear
11:45 PM 60.8 °F 53.6 °F 77% 29.98 in - NW 17.3 mph - N/A   Clear